Weather Roundup
Issued by NWS Chicago, IL

Home | Current Version | Previous Version | Text Only | Print | Product List | Glossary On
Versions: 1 2 3 4 5 6 7 8 9 10 11 12 13 14 15 16 17 18 19 20 21 22 23 24 25 26 27 28 29 30 31 32 33 34 35 36 37 38 39 40 41 42 43 44 45 46 47 48 49 50
000
NZUS59 KLOT 241109
HRRLOT

CHICAGO AREA WEATHER ROUNDUP
NATIONAL WEATHER SERVICE CHICAGO/ROMEOVILLE IL
600 AM CDT MON JUL 24 2017

NOTE: "FAIR" INDICATES FEW OR NO CLOUDS BELOW 12,000 FEET WITH NO
SIGNIFICANT WEATHER AND/OR OBSTRUCTIONS TO VISIBILITY.

* THESE STATIONS ARE NOT UNDER NWS QUALITY CONTROL. THEY ALSO MAY NOT
  REPORT WEATHER SUCH AS PRECIPITATION OR FOG.

ILZ005-006-012>014-019>023-241200-
NORTHEAST ILLINOIS

CITY           SKY/WX    TMP DP  RH WIND       PRES   REMARKS
OHARE          MOCLDY    67  60  78 N10       29.97R
MIDWAY         MOCLDY    69  60  73 N15       29.96R
AURORA         PTCLDY    65  61  87 N8        29.98R
LANSING*       CLOUDY    68  60  74 N12G17    29.95R
JOLIET*        CLEAR     67  63  87 CALM      29.97R
WAUKEGAN       MOCLDY    62  61  96 NW5       29.98R
DUPAGE AIRPORT PTCLDY    62  61  96 N9        29.97R
WHEELING       PTCLDY    66  63  90 N7        29.99R
MORRIS*        PTCLDY    64  62  91 N3        29.96R
LEWIS AIRPORT* PTCLDY    65  59  83 N9        29.96R
NORTHERLY ISL    N/A     68  59  73 N12         N/A
$$

WIZ051-052-058>065-066-070>072-241200-
SOUTHEAST WISCONSIN

CITY           SKY/WX    TMP DP  RH WIND       PRES   REMARKS
MILWAUKEE      DRIZZLE   64  61  90 N13       30.00R
KENOSHA*       CLOUDY    63  59  87 N7        29.99R
RACINE*        CLOUDY    65  62  90 N15       30.00R
WAUKESHA       CLOUDY    61  57  88 N8        30.02R
WEST BEND      CLOUDY    61  59  94 N6        30.02R
$$

INZ001>003-010>013-019-020-241200-
NORTHWEST INDIANA

CITY           SKY/WX    TMP DP  RH WIND       PRES   REMARKS
GARY*          NOT AVBL
MICHIGAN CITY* NOT AVBL
RENSSELAER*    NOT AVBL
VALPARAISO     CLOUDY    69  64  84 VRB7      29.94R
$$

LMZ740>746-241200-
SOUTHERN LAKE MICHIGAN

STATION/POSITION TIME  SKY/WX   TEMP WIND        PRES    VSBY
                                AIR  DIR/SP/G
                 (UTC)          (F)  (DEG/KT/KT) (MB)    (MI)
HARRISON CRIB    1040            69   10/ 19/ 20   N/A
BURNHAM HARBOR   1100            68                N/A
CALUMET HARBOR   1042            68  350/  8/ 17 1013.9R
BURNS HARBOR     1040            69  350/ 15/ 18 1014.2R
MICHIGAN CITY    1040            69  350/ 21/ 22   N/A
$$

ABBREVIATIONS USED IN REMARKS
   TC - TEMPERATURE IN CELSIUS
  WCI - WIND CHILL INDEX
   HX - HEAT INDEX
  VSB - VISIBILITY
$$



USA.gov is the U.S. government's official web portal to all federal, state and local government web resources and services.